UKV864 EGPH-LSGG

Flight info

Callsign UKV864
Flight time 1h 55m
Altitude 37000
Route GOSAM P600 FENIK L612 NAVSO DCT AKOMU DCT VAMEB UL612 VEULE DCT PEKIM DCT PILUL DCT PIMUP DCT PIXIS DCT PIBAT DCT LUSAR
Aircraft B738/M-SDE2E3FGHIRWXY/LB1

Departure

Time 2026-04-21 09:19
Airport Edinburgh Airport (EGPH)

Arrival

Time 2026-04-21 11:15
Airport Geneva International Airport (LSGG)
Time Latitude Longitude Altitude Speed Heading
2026-04-21 08:49 55.94749 -3.35489 115 ft 0 kts 208°
2026-04-21 09:09 55.94762 -3.35477 111 ft 4 kts 211°
2026-04-21 09:09 55.94783 -3.35449 112 ft 4 kts 228°
2026-04-21 09:09 55.94794 -3.35413 111 ft 4 kts 281°
2026-04-21 09:09 55.94792 -3.35401 111 ft 0 kts 299°
2026-04-21 09:12 55.94803 -3.35437 111 ft 8 kts 299°
2026-04-21 09:12 55.94840 -3.35559 115 ft 14 kts 298°
2026-04-21 09:12 55.94886 -3.35708 113 ft 14 kts 299°
2026-04-21 09:12 55.94936 -3.35844 114 ft 13 kts 323°
2026-04-21 09:13 55.95021 -3.35835 115 ft 13 kts
2026-04-21 09:13 55.95078 -3.35943 112 ft 12 kts 298°
2026-04-21 09:13 55.95109 -3.36083 115 ft 12 kts 288°
2026-04-21 09:13 55.95135 -3.36226 113 ft 12 kts 286°
2026-04-21 09:14 55.95109 -3.36357 113 ft 12 kts 239°
2026-04-21 09:14 55.95068 -3.36478 114 ft 11 kts 239°
2026-04-21 09:14 55.95025 -3.36604 114 ft 14 kts 238°
2026-04-21 09:14 55.94964 -3.36782 112 ft 20 kts 238°
2026-04-21 09:15 55.94893 -3.36994 113 ft 20 kts 239°
2026-04-21 09:15 55.94823 -3.37199 113 ft 19 kts 239°
2026-04-21 09:15 55.94756 -3.37397 114 ft 18 kts 239°
2026-04-21 09:15 55.94691 -3.37588 115 ft 18 kts 239°
2026-04-21 09:16 55.94629 -3.37773 114 ft 17 kts 239°
2026-04-21 09:16 55.94568 -3.37951 114 ft 16 kts 239°
2026-04-21 09:16 55.94510 -3.38123 114 ft 16 kts 238°
2026-04-21 09:16 55.94453 -3.38286 113 ft 15 kts 240°
2026-04-21 09:17 55.94400 -3.38445 115 ft 15 kts 238°
2026-04-21 09:17 55.94349 -3.38597 114 ft 14 kts 239°
2026-04-21 09:17 55.94300 -3.38741 113 ft 13 kts 238°
2026-04-21 09:17 55.94302 -3.38884 113 ft 13 kts 320°
2026-04-21 09:18 55.94380 -3.38966 110 ft 13 kts 336°
2026-04-21 09:18 55.94440 -3.38900 113 ft 4 kts 59°
2026-04-21 09:18 55.94454 -3.38857 111 ft 4 kts 58°
2026-04-21 09:18 55.94551 -3.38573 112 ft 64 kts 59°
2026-04-21 09:19 55.94907 -3.37521 112 ft 132 kts 59°
2026-04-21 09:19 55.95445 -3.35911 606 ft 152 kts 61°
2026-04-21 09:19 55.95993 -3.34358 1686 ft 147 kts 50°
2026-04-21 09:19 55.96760 -3.33121 2365 ft 161 kts 45°
2026-04-21 09:20 55.97669 -3.31651 2700 ft 189 kts 44°
2026-04-21 09:20 55.98703 -3.29974 2950 ft 211 kts 45°
2026-04-21 09:20 55.99917 -3.28409 3467 ft 224 kts 24°
2026-04-21 09:20 56.01500 -3.28269 4085 ft 238 kts 348°
2026-04-21 09:21 56.02910 -3.29883 4751 ft 251 kts 310°
2026-04-21 09:21 56.03540 -3.32799 5369 ft 260 kts 272°
2026-04-21 09:21 56.03190 -3.36003 5893 ft 272 kts 250°
2026-04-21 09:21 56.02582 -3.39304 6476 ft 285 kts 251°
2026-04-21 09:22 56.01992 -3.42728 7266 ft 290 kts 251°
2026-04-21 09:22 56.01428 -3.46190 8084 ft 292 kts 252°
2026-04-21 09:22 56.00911 -3.49727 8882 ft 296 kts 253°
2026-04-21 09:22 56.00410 -3.53270 9643 ft 300 kts 253°
2026-04-21 09:23 56.00064 -3.55718 10204 ft 302 kts 253°
2026-04-21 09:23 55.99370 -3.60603 11006 ft 316 kts 253°
2026-04-21 09:23 55.98802 -3.64550 11186 ft 339 kts 253°
2026-04-21 09:23 55.98197 -3.68752 11478 ft 357 kts 253°
2026-04-21 09:24 55.97786 -3.71620 11863 ft 362 kts 253°
2026-04-21 09:24 55.97156 -3.76005 12571 ft 366 kts 253°
2026-04-21 09:24 55.96519 -3.80435 13312 ft 370 kts 253°
2026-04-21 09:24 55.95874 -3.84906 14045 ft 375 kts 253°
2026-04-21 09:25 55.95217 -3.89438 14754 ft 379 kts 253°
2026-04-21 09:25 55.94550 -3.94011 15495 ft 382 kts 253°
2026-04-21 09:25 55.93766 -3.98541 16223 ft 382 kts 240°
2026-04-21 09:25 55.92159 -4.02223 16921 ft 375 kts 214°
2026-04-21 09:26 55.89989 -4.04788 17716 ft 373 kts 206°
2026-04-21 09:26 55.87761 -4.07208 18398 ft 378 kts 208°
2026-04-21 09:26 55.85576 -4.09903 19050 ft 385 kts 213°
2026-04-21 09:26 55.83494 -4.12864 19661 ft 389 kts 216°
2026-04-21 09:27 55.81439 -4.16038 20284 ft 393 kts 217°
2026-04-21 09:27 55.79375 -4.19299 20893 ft 397 kts 217°
2026-04-21 09:27 55.77244 -4.22452 21480 ft 398 kts 212°
2026-04-21 09:27 55.74944 -4.25210 22043 ft 397 kts 203°
2026-04-21 09:28 55.72376 -4.26625 22569 ft 389 kts 181°
2026-04-21 09:28 55.69693 -4.26477 23199 ft 383 kts 166°
2026-04-21 09:28 55.67165 -4.25104 23761 ft 379 kts 151°
2026-04-21 09:28 55.64824 -4.22913 24300 ft 380 kts 148°
2026-04-21 09:29 55.62547 -4.20614 24730 ft 383 kts 147°
2026-04-21 09:29 55.60219 -4.18245 25162 ft 386 kts 147°
2026-04-21 09:29 55.57865 -4.15881 25605 ft 389 kts 148°
2026-04-21 09:29 55.55487 -4.13531 26041 ft 392 kts 148°
2026-04-21 09:30 55.53090 -4.11187 26452 ft 396 kts 148°
2026-04-21 09:30 55.50665 -4.08829 26855 ft 399 kts 148°
2026-04-21 09:30 55.48221 -4.06456 27245 ft 402 kts 148°
2026-04-21 09:30 55.45788 -4.04092 27629 ft 405 kts 148°
2026-04-21 09:31 55.43303 -4.01678 27989 ft 409 kts 148°
2026-04-21 09:31 55.40804 -3.99253 28352 ft 412 kts 149°
2026-04-21 09:31 55.38282 -3.96808 28709 ft 415 kts 149°
2026-04-21 09:31 55.35739 -3.94348 29081 ft 418 kts 149°
2026-04-21 09:32 55.33182 -3.91877 29404 ft 421 kts 149°
2026-04-21 09:32 55.30601 -3.89386 29707 ft 425 kts 149°
2026-04-21 09:32 55.28027 -3.86905 30018 ft 428 kts 149°
2026-04-21 09:32 55.25402 -3.84380 30336 ft 431 kts 149°
2026-04-21 09:33 55.22747 -3.81830 30622 ft 434 kts 149°
2026-04-21 09:33 55.20063 -3.79329 30837 ft 438 kts 151°
2026-04-21 09:33 55.17349 -3.76959 31055 ft 442 kts 152°
2026-04-21 09:33 55.14576 -3.74609 31369 ft 442 kts 153°
2026-04-21 09:34 55.11805 -3.72277 31730 ft 442 kts 153°
2026-04-21 09:34 55.09032 -3.69940 32057 ft 442 kts 153°
2026-04-21 09:34 55.06256 -3.67589 32384 ft 442 kts 153°
2026-04-21 09:34 55.03481 -3.65229 32667 ft 444 kts 153°
2026-04-21 09:35 55.00735 -3.62891 32923 ft 445 kts 153°
2026-04-21 09:35 54.97934 -3.60503 33188 ft 447 kts 154°
2026-04-21 09:35 54.95133 -3.58117 33449 ft 449 kts 154°
2026-04-21 09:35 54.92322 -3.55726 33688 ft 451 kts 154°
2026-04-21 09:36 54.89497 -3.53327 33947 ft 452 kts 154°
2026-04-21 09:36 54.86699 -3.50955 34225 ft 453 kts 154°
2026-04-21 09:36 54.83863 -3.48553 34505 ft 453 kts 155°
2026-04-21 09:36 54.81024 -3.46154 34745 ft 453 kts 154°
2026-04-21 09:37 54.78183 -3.43756 34973 ft 454 kts 155°
2026-04-21 09:37 54.75329 -3.41351 35170 ft 455 kts 154°
2026-04-21 09:37 54.72463 -3.38940 35381 ft 456 kts 155°
2026-04-21 09:37 54.69642 -3.36571 35601 ft 457 kts 154°
2026-04-21 09:38 54.66766 -3.34160 35811 ft 458 kts 154°
2026-04-21 09:38 54.63888 -3.31750 36023 ft 459 kts 154°
2026-04-21 09:38 54.61007 -3.29342 36221 ft 460 kts 154°
2026-04-21 09:38 54.58161 -3.26967 36427 ft 460 kts 154°
2026-04-21 09:39 54.55277 -3.24565 36630 ft 461 kts 154°
2026-04-21 09:39 54.52380 -3.22154 36853 ft 461 kts 154°
2026-04-21 09:39 54.49487 -3.19750 37062 ft 462 kts 154°
2026-04-21 09:39 54.46583 -3.17342 37281 ft 462 kts 154°
2026-04-21 09:40 54.43688 -3.14945 37466 ft 461 kts 154°
2026-04-21 09:40 54.40819 -3.12573 37444 ft 464 kts 154°
2026-04-21 09:40 54.34973 -3.07751 37447 ft 465 kts 154°
2026-04-21 09:41 54.29130 -3.02948 37450 ft 465 kts 155°
2026-04-21 09:41 54.23330 -2.98192 37452 ft 464 kts 155°
2026-04-21 09:42 54.17479 -2.93411 37442 ft 465 kts 155°
2026-04-21 09:42 54.11589 -2.88966 37444 ft 465 kts 158°
2026-04-21 09:43 54.05607 -2.84739 37439 ft 466 kts 158°
2026-04-21 09:43 53.99611 -2.80411 37438 ft 469 kts 158°
2026-04-21 09:44 53.93598 -2.76088 37438 ft 474 kts 158°
2026-04-21 09:44 53.87487 -2.71698 37437 ft 479 kts 158°
2026-04-21 09:45 53.81350 -2.67251 37412 ft 476 kts 158°
2026-04-21 09:45 53.75286 -2.62881 37415 ft 470 kts 158°
2026-04-21 09:46 53.69328 -2.58625 37414 ft 466 kts 158°
2026-04-21 09:46 53.63361 -2.54373 37423 ft 463 kts 158°
2026-04-21 09:47 53.57418 -2.50139 37419 ft 463 kts 158°
2026-04-21 09:47 53.51514 -2.45934 37424 ft 463 kts 158°
2026-04-21 09:48 53.45564 -2.41714 37432 ft 466 kts 158°
2026-04-21 09:48 53.39534 -2.37464 37438 ft 472 kts 158°
2026-04-21 09:49 53.33452 -2.33187 37434 ft 475 kts 158°
2026-04-21 09:49 53.27369 -2.28919 37429 ft 476 kts 158°
2026-04-21 09:50 53.23287 -2.26071 37413 ft 472 kts 159°
2026-04-21 09:50 53.15296 -2.20585 37418 ft 467 kts 159°
2026-04-21 09:51 53.09280 -2.16440 37412 ft 468 kts 159°
2026-04-21 09:51 53.03297 -2.12299 37401 ft 468 kts 159°
2026-04-21 09:52 52.97275 -2.08142 37391 ft 469 kts 159°
2026-04-21 09:52 52.91226 -2.03983 37392 ft 470 kts 159°
2026-04-21 09:53 52.85156 -1.99825 37387 ft 471 kts 159°
2026-04-21 09:53 52.79129 -1.95708 37379 ft 471 kts 159°
2026-04-21 09:54 52.73056 -1.91573 37381 ft 472 kts 159°
2026-04-21 09:54 52.66969 -1.87439 37370 ft 472 kts 159°
2026-04-21 09:55 52.60888 -1.83323 37373 ft 472 kts 159°
2026-04-21 09:55 52.54793 -1.79210 37369 ft 473 kts 159°
2026-04-21 09:56 52.48738 -1.75135 37379 ft 473 kts 159°
2026-04-21 09:56 52.42637 -1.71041 37369 ft 473 kts 159°
2026-04-21 09:57 52.36534 -1.66958 37372 ft 473 kts 159°
2026-04-21 09:57 52.30594 -1.62408 37367 ft 474 kts 154°
2026-04-21 09:58 52.24710 -1.57458 37396 ft 475 kts 154°
2026-04-21 09:58 52.18808 -1.52565 37399 ft 475 kts 155°
2026-04-21 09:59 52.12919 -1.47767 37393 ft 475 kts 155°
2026-04-21 09:59 52.06988 -1.42955 37387 ft 476 kts 155°
2026-04-21 10:00 52.01085 -1.38153 37336 ft 477 kts 155°
2026-04-21 10:00 51.95140 -1.33330 37329 ft 477 kts 155°
2026-04-21 10:01 51.89173 -1.28528 37322 ft 478 kts 155°
2026-04-21 10:01 51.83210 -1.23743 37317 ft 478 kts 155°
2026-04-21 10:02 51.74275 -1.16593 37311 ft 479 kts 155°
2026-04-21 10:03 51.68283 -1.11814 37319 ft 479 kts 155°
2026-04-21 10:03 51.62339 -1.07075 37317 ft 480 kts 154°
2026-04-21 10:04 51.56767 -1.01164 37328 ft 483 kts 145°
2026-04-21 10:04 51.51358 -0.94798 37316 ft 484 kts 146°
2026-04-21 10:05 51.45823 -0.88584 37305 ft 485 kts 150°
2026-04-21 10:05 51.39743 -0.84109 37325 ft 481 kts 161°
2026-04-21 10:06 51.33470 -0.80254 37318 ft 482 kts 161°
2026-04-21 10:06 51.27214 -0.76340 37323 ft 482 kts 161°
2026-04-21 10:07 51.21010 -0.72394 37318 ft 482 kts 161°
2026-04-21 10:07 51.14775 -0.68429 37308 ft 482 kts 161°
2026-04-21 10:08 51.08573 -0.64503 37297 ft 481 kts 161°
2026-04-21 10:08 51.02577 -0.59754 37282 ft 484 kts 148°
2026-04-21 10:09 50.97000 -0.53702 37278 ft 484 kts 147°
2026-04-21 10:09 50.91470 -0.47683 37290 ft 484 kts 147°
2026-04-21 10:10 50.86823 -0.42724 37291 ft 484 kts 148°
2026-04-21 10:10 50.80299 -0.35834 37292 ft 484 kts 148°
2026-04-21 10:11 50.75633 -0.30917 37295 ft 484 kts 148°
2026-04-21 10:11 50.70017 -0.25010 37288 ft 484 kts 148°
2026-04-21 10:12 50.64442 -0.19165 37284 ft 484 kts 148°
2026-04-21 10:12 50.58819 -0.13285 37277 ft 484 kts 148°
2026-04-21 10:13 50.53185 -0.07408 37272 ft 484 kts 148°
2026-04-21 10:13 50.47589 -0.01585 37265 ft 485 kts 148°
2026-04-21 10:14 50.41952 0.04269 37267 ft 485 kts 148°
2026-04-21 10:14 50.36354 0.10083 37263 ft 485 kts 148°
2026-04-21 10:15 50.30715 0.15933 37263 ft 485 kts 148°
2026-04-21 10:15 50.25071 0.21779 37267 ft 486 kts 149°
2026-04-21 10:16 50.19471 0.27558 37264 ft 486 kts 149°
2026-04-21 10:16 50.13820 0.33360 37263 ft 485 kts 149°
2026-04-21 10:17 50.08171 0.39141 37263 ft 485 kts 149°
2026-04-21 10:17 50.02510 0.44922 37255 ft 485 kts 149°
2026-04-21 10:18 49.96900 0.50637 37253 ft 485 kts 149°
2026-04-21 10:18 49.91232 0.56396 37252 ft 484 kts 149°
2026-04-21 10:19 49.85646 0.62146 37238 ft 485 kts 145°
2026-04-21 10:19 49.80604 0.69122 37235 ft 487 kts 138°
2026-04-21 10:20 49.75712 0.76390 37227 ft 487 kts 138°
2026-04-21 10:20 49.70838 0.83570 37221 ft 486 kts 138°
2026-04-21 10:21 49.65894 0.90748 37218 ft 486 kts 139°
2026-04-21 10:21 49.60982 0.97824 37208 ft 486 kts 139°
2026-04-21 10:22 49.56021 1.04946 37211 ft 485 kts 139°
2026-04-21 10:22 49.51099 1.11994 37213 ft 485 kts 139°
2026-04-21 10:23 49.46146 1.19070 37211 ft 485 kts 139°
2026-04-21 10:23 49.41186 1.26136 37211 ft 485 kts 139°
2026-04-21 10:24 49.36263 1.33127 37210 ft 485 kts 139°
2026-04-21 10:24 49.31314 1.40137 37209 ft 484 kts 139°
2026-04-21 10:25 49.26353 1.47144 37206 ft 484 kts 139°
2026-04-21 10:25 49.21382 1.54143 37202 ft 484 kts 139°
2026-04-21 10:26 49.16418 1.61114 37200 ft 484 kts 139°
2026-04-21 10:26 49.11478 1.68032 37199 ft 484 kts 140°
2026-04-21 10:27 49.06496 1.74988 37201 ft 484 kts 140°
2026-04-21 10:27 49.01534 1.81896 37204 ft 485 kts 140°
2026-04-21 10:28 48.96545 1.88824 37202 ft 485 kts 140°
2026-04-21 10:28 48.92388 1.94579 37201 ft 485 kts 140°
2026-04-21 10:29 48.89949 1.97951 37178 ft 485 kts 140°
2026-04-21 10:29 48.84943 2.04856 37181 ft 485 kts 140°
2026-04-21 10:30 48.79962 2.11707 37182 ft 485 kts 140°
2026-04-21 10:30 48.74966 2.18559 37186 ft 484 kts 140°
2026-04-21 10:31 48.69987 2.25370 37184 ft 484 kts 140°
2026-04-21 10:31 48.64967 2.32216 37185 ft 484 kts 140°
2026-04-21 10:32 48.59983 2.38996 37180 ft 484 kts 140°
2026-04-21 10:32 48.54973 2.45792 37179 ft 484 kts 140°
2026-04-21 10:33 48.49952 2.52583 37178 ft 484 kts 141°
2026-04-21 10:33 48.44958 2.59321 37172 ft 484 kts 141°
2026-04-21 10:34 48.39933 2.66081 37167 ft 484 kts 141°
2026-04-21 10:34 48.34926 2.72799 37160 ft 484 kts 141°
2026-04-21 10:35 48.29895 2.79534 37150 ft 484 kts 141°
2026-04-21 10:35 48.24760 2.86062 37138 ft 482 kts 145°
2026-04-21 10:36 48.19398 2.92131 37135 ft 482 kts 146°
2026-04-21 10:36 48.14070 2.98172 37138 ft 482 kts 146°
2026-04-21 10:37 48.08687 3.04209 37121 ft 481 kts 150°
2026-04-21 10:37 48.02775 3.08507 37134 ft 474 kts 162°
2026-04-21 10:38 47.96658 3.12230 37122 ft 474 kts 162°
2026-04-21 10:38 47.90551 3.15993 37124 ft 474 kts 161°
2026-04-21 10:39 47.84459 3.19806 37122 ft 475 kts 161°
2026-04-21 10:39 47.78405 3.23604 37114 ft 474 kts 161°
2026-04-21 10:40 47.72307 3.27417 37108 ft 475 kts 161°
2026-04-21 10:40 47.66238 3.31200 37106 ft 474 kts 161°
2026-04-21 10:41 47.60146 3.34987 37099 ft 474 kts 161°
2026-04-21 10:41 47.54087 3.38745 37096 ft 474 kts 162°
2026-04-21 10:42 47.47983 3.42511 37097 ft 473 kts 162°
2026-04-21 10:42 47.41936 3.46228 37094 ft 473 kts 162°
2026-04-21 10:43 47.35849 3.49962 37081 ft 473 kts 162°
2026-04-21 10:43 47.29763 3.53688 37091 ft 473 kts 162°
2026-04-21 10:44 47.23718 3.57383 37064 ft 473 kts 162°
2026-04-21 10:44 47.17636 3.61086 37066 ft 473 kts 162°
2026-04-21 10:45 47.11536 3.64791 37069 ft 473 kts 162°
2026-04-21 10:45 47.05481 3.68463 37064 ft 473 kts 162°
2026-04-21 10:46 46.99386 3.72149 36831 ft 477 kts 162°
2026-04-21 10:46 46.96430 3.74426 36517 ft 483 kts 147°
2026-04-21 10:46 46.93951 3.77775 36276 ft 488 kts 132°
2026-04-21 10:46 46.92108 3.81901 36021 ft 494 kts 115°
2026-04-21 10:47 46.90849 3.86598 35819 ft 496 kts 110°
2026-04-21 10:47 46.89668 3.91361 35557 ft 499 kts 110°
2026-04-21 10:47 46.88476 3.96143 35307 ft 501 kts 111°
2026-04-21 10:47 46.87250 4.00938 34895 ft 501 kts 111°
2026-04-21 10:48 46.86015 4.05651 34223 ft 503 kts 112°
2026-04-21 10:48 46.84747 4.10410 33679 ft 500 kts 112°
2026-04-21 10:48 46.83481 4.15139 33171 ft 496 kts 112°
2026-04-21 10:48 46.82229 4.19814 32720 ft 491 kts 112°
2026-04-21 10:49 46.81005 4.24406 32252 ft 487 kts 111°
2026-04-21 10:49 46.80018 4.29119 31781 ft 484 kts 102°
2026-04-21 10:49 46.79300 4.33896 31350 ft 479 kts 101°
2026-04-21 10:49 46.78638 4.38659 30900 ft 476 kts 100°
2026-04-21 10:50 46.78210 4.41791 30608 ft 474 kts 100°
2026-04-21 10:50 46.77337 4.48085 30016 ft 470 kts 101°
2026-04-21 10:50 46.76675 4.52738 29504 ft 467 kts 101°
2026-04-21 10:50 46.76015 4.57283 29079 ft 462 kts 101°
2026-04-21 10:51 46.75344 4.61841 28623 ft 458 kts 101°
2026-04-21 10:51 46.74671 4.66380 28189 ft 454 kts 101°
2026-04-21 10:51 46.74003 4.70863 27739 ft 450 kts 101°
2026-04-21 10:51 46.73337 4.75323 27307 ft 446 kts 101°
2026-04-21 10:52 46.72678 4.79731 26864 ft 443 kts 101°
2026-04-21 10:52 46.72028 4.84067 26445 ft 440 kts 101°
2026-04-21 10:52 46.71375 4.88411 26015 ft 437 kts 101°
2026-04-21 10:52 46.70723 4.92738 25588 ft 434 kts 101°
2026-04-21 10:53 46.70076 4.97025 25171 ft 431 kts 101°
2026-04-21 10:53 46.69431 5.01286 24756 ft 429 kts 101°
2026-04-21 10:53 46.68795 5.05473 24345 ft 427 kts 101°
2026-04-21 10:53 46.68153 5.09697 23926 ft 424 kts 101°
2026-04-21 10:54 46.67514 5.13887 23492 ft 422 kts 101°
2026-04-21 10:54 46.66876 5.18055 23014 ft 420 kts 101°
2026-04-21 10:54 46.66249 5.22184 22719 ft 413 kts 101°
2026-04-21 10:54 46.65645 5.26187 22395 ft 408 kts 101°
2026-04-21 10:55 46.65037 5.30217 22003 ft 405 kts 102°
2026-04-21 10:55 46.64432 5.34218 21577 ft 402 kts 102°
2026-04-21 10:55 46.63830 5.38188 21163 ft 400 kts 102°
2026-04-21 10:55 46.63231 5.42132 20750 ft 398 kts 102°
2026-04-21 10:56 46.62632 5.46050 20347 ft 396 kts 102°
2026-04-21 10:56 46.62031 5.49962 19937 ft 394 kts 102°
2026-04-21 10:56 46.61435 5.53794 19528 ft 392 kts 102°
2026-04-21 10:56 46.60832 5.57652 19129 ft 390 kts 102°
2026-04-21 10:57 46.60228 5.61510 18718 ft 389 kts 102°
2026-04-21 10:57 46.59628 5.65338 18299 ft 387 kts 103°
2026-04-21 10:57 46.59031 5.69147 17846 ft 386 kts 103°
2026-04-21 10:57 46.58436 5.72935 17410 ft 383 kts 103°
2026-04-21 10:58 46.57841 5.76705 16996 ft 381 kts 103°
2026-04-21 10:58 46.57347 5.79154 16701 ft 379 kts 114°
2026-04-21 10:58 46.55618 5.82867 16262 ft 370 kts 139°
2026-04-21 10:58 46.53594 5.85123 15878 ft 363 kts 149°
2026-04-21 10:59 46.52209 5.86477 15604 ft 362 kts 149°
2026-04-21 10:59 46.50116 5.88517 15220 ft 360 kts 149°
2026-04-21 10:59 46.47374 5.91215 14626 ft 360 kts 148°
2026-04-21 10:59 46.45314 5.93273 14235 ft 358 kts 148°
2026-04-21 11:00 46.43957 5.94634 13974 ft 357 kts 148°
2026-04-21 11:00 46.41912 5.96686 13559 ft 355 kts 148°
2026-04-21 11:00 46.39884 5.98716 13156 ft 351 kts 148°
2026-04-21 11:00 46.37916 6.00683 12977 ft 332 kts 149°
2026-04-21 11:01 46.35900 6.02027 12804 ft 309 kts 172°
2026-04-21 11:01 46.33844 6.02134 12671 ft 293 kts 193°
2026-04-21 11:01 46.31925 6.01316 12462 ft 282 kts 209°
2026-04-21 11:02 46.28932 5.97936 11865 ft 270 kts 229°
2026-04-21 11:02 46.27630 5.95985 11559 ft 268 kts 229°
2026-04-21 11:02 46.26335 5.94056 11272 ft 273 kts 229°
2026-04-21 11:02 46.24994 5.92080 10955 ft 278 kts 228°
2026-04-21 11:03 46.23625 5.90077 10611 ft 280 kts 228°
2026-04-21 11:03 46.22264 5.88093 10303 ft 275 kts 228°
2026-04-21 11:03 46.20953 5.86189 10177 ft 262 kts 228°
2026-04-21 11:03 46.19687 5.84351 9957 ft 252 kts 228°
2026-04-21 11:04 46.18458 5.82567 9677 ft 248 kts 227°
2026-04-21 11:04 46.17247 5.80813 9408 ft 246 kts 227°
2026-04-21 11:04 46.16038 5.79056 9158 ft 247 kts 227°
2026-04-21 11:04 46.14823 5.77293 8875 ft 248 kts 227°
2026-04-21 11:05 46.13616 5.75544 8701 ft 242 kts 227°
2026-04-21 11:05 46.12447 5.73854 8530 ft 241 kts 227°
2026-04-21 11:05 46.11268 5.72144 8464 ft 243 kts 227°
2026-04-21 11:05 46.10058 5.70409 8359 ft 246 kts 225°
2026-04-21 11:06 46.08792 5.68700 8119 ft 248 kts 225°
2026-04-21 11:06 46.07579 5.66994 8054 ft 239 kts 221°
2026-04-21 11:06 46.06097 5.65973 8078 ft 239 kts 191°
2026-04-21 11:06 46.04455 5.66203 8086 ft 242 kts 160°
2026-04-21 11:07 46.03094 5.67621 8025 ft 240 kts 128°
2026-04-21 11:07 46.02277 5.69620 7905 ft 229 kts 118°
2026-04-21 11:07 46.01844 5.71762 7712 ft 218 kts 90°
2026-04-21 11:07 46.01885 5.73895 7524 ft 212 kts 86°
2026-04-21 11:08 46.01969 5.76016 7349 ft 213 kts 86°
2026-04-21 11:08 46.02116 5.78141 7114 ft 212 kts 73°
2026-04-21 11:08 46.02835 5.79883 7024 ft 204 kts 47°
2026-04-21 11:08 46.03833 5.81416 6707 ft 215 kts 45°
2026-04-21 11:09 46.04871 5.82953 6418 ft 214 kts 46°
2026-04-21 11:09 46.05903 5.84479 6132 ft 211 kts 46°
2026-04-21 11:09 46.06911 5.85968 5850 ft 207 kts 45°
2026-04-21 11:09 46.07906 5.87439 5576 ft 202 kts 45°
2026-04-21 11:10 46.08883 5.88883 5332 ft 198 kts 45°
2026-04-21 11:10 46.09829 5.90280 5063 ft 189 kts 45°
2026-04-21 11:10 46.10710 5.91582 4823 ft 178 kts 45°
2026-04-21 11:10 46.11561 5.92853 4586 ft 174 kts 45°
2026-04-21 11:11 46.12400 5.94087 4350 ft 170 kts 45°
2026-04-21 11:11 46.13224 5.95296 4135 ft 168 kts 45°
2026-04-21 11:11 46.14026 5.96521 3927 ft 170 kts 45°
2026-04-21 11:11 46.14853 5.97739 3747 ft 169 kts 44°
2026-04-21 11:12 46.15686 5.98929 3419 ft 164 kts 44°
2026-04-21 11:12 46.16448 6.00053 3201 ft 149 kts 45°
2026-04-21 11:12 46.17157 6.01102 3033 ft 145 kts 45°
2026-04-21 11:12 46.17865 6.02142 2855 ft 146 kts 44°
2026-04-21 11:13 46.18564 6.03174 2631 ft 144 kts 45°
2026-04-21 11:13 46.19256 6.04192 2428 ft 141 kts 45°
2026-04-21 11:13 46.19932 6.05193 2233 ft 137 kts 45°
2026-04-21 11:13 46.20599 6.06175 2063 ft 139 kts 45°
2026-04-21 11:14 46.21273 6.07169 1878 ft 143 kts 45°
2026-04-21 11:14 46.21967 6.08204 1681 ft 143 kts 43°
2026-04-21 11:14 46.22662 6.09223 1464 ft 141 kts 44°
2026-04-21 11:14 46.23308 6.10168 1404 ft 116 kts 45°
2026-04-21 11:15 46.23769 6.10845 1378 ft 73 kts 45°
2026-04-21 11:15 46.24018 6.11209 1380 ft 31 kts 45°
2026-04-21 11:15 46.24130 6.11371 1373 ft 22 kts 45°
2026-04-21 11:15 46.24232 6.11529 1370 ft 22 kts 51°
2026-04-21 11:16 46.24313 6.11732 1369 ft 23 kts 73°
2026-04-21 11:16 46.24333 6.11918 1370 ft 12 kts 115°
2026-04-21 11:16 46.24285 6.11935 1372 ft 7 kts 213°
2026-04-21 11:16 46.24237 6.11863 1373 ft 12 kts 226°
2026-04-21 11:17 46.24179 6.11777 1374 ft 12 kts 226°
2026-04-21 11:17 46.24120 6.11692 1373 ft 13 kts 225°
2026-04-21 11:17 46.24045 6.11580 1376 ft 19 kts 226°
2026-04-21 11:17 46.23943 6.11430 1376 ft 21 kts 226°
2026-04-21 11:18 46.23841 6.11282 1380 ft 20 kts 225°
2026-04-21 11:18 46.23744 6.11139 1382 ft 20 kts 225°
2026-04-21 11:18 46.23648 6.10999 1382 ft 19 kts 226°
2026-04-21 11:18 46.23556 6.10864 1384 ft 19 kts 225°
2026-04-21 11:19 46.23473 6.10741 1387 ft 10 kts 225°
2026-04-21 11:19 46.23414 6.10712 1386 ft 10 kts 152°
2026-04-21 11:19 46.23364 6.10777 1386 ft 10 kts 134°
2026-04-21 11:19 46.23321 6.10845 1386 ft 9 kts 137°
2026-04-21 11:20 46.23285 6.10894 1388 ft 4 kts 135°
2026-04-21 11:20 46.23280 6.10901 1388 ft 0 kts 135°